QPF
0.15 0.08 0.09 0.08 0.08 0.11 0.10 0.06 0.06 0.08 0.07 0.07 0.05 0.03 0.04 0.04 0.05 0.04 0.03 0.04 0.06 0.07 0.07 0.06 0.08 0.07 0.07 0.06 0.07 0.07 0.07 0.05 0.03 0.05 0.06 0.05 0.04 0.04 0.04 0.03 0.02 0.02 0.02
0.11 0.08 0.09 0.11 0.09 0.09 0.08 0.06 0.06 0.07 0.08 0.10 0.08 0.06 0.05 0.05 0.06 0.05 0.04 0.05 0.06 0.06 0.05 0.05 0.06 0.07 0.06 0.06 0.08 0.09 0.08 0.05 0.04 0.06 0.07 0.07 0.07 0.06 0.06 0.04 0.02 0.02 0.03
0.11 0.08 0.07 0.10 0.07 0.07 0.07 0.07 0.08 0.07 0.07 0.07 0.07 0.08 0.08 0.07 0.07 0.08 0.07 0.06 0.07 0.08 0.06 0.06 0.07 0.08 0.06 0.07 0.10 0.10 0.07 0.06 0.05 0.06 0.05 0.04 0.06 0.06 0.06 0.05 0.04 0.04 0.04
0.08 0.08 0.06 0.07 0.07 0.04 0.05 0.07 0.08 0.07 0.07 0.06 0.06 0.04 0.04 0.04 0.05 0.08 0.10 0.07 0.10 0.13 0.10 0.07 0.08 0.09 0.08 0.09 0.10 0.09 0.08 0.07 0.07 0.06 0.04 0.02 0.04 0.05 0.06 0.04 0.04 0.03 0.03
0.05 0.07 0.07 0.06 0.06 0.06 0.06 0.05 0.06 0.08 0.07 0.06 0.04 0.03 0.03 0.03 0.04 0.06 0.09 0.10 0.11 0.15 0.11 0.08 0.08 0.10 0.12 0.13 0.10 0.08 0.09 0.09 0.10 0.09 0.04 0.03 0.05 0.05 0.04 0.03 0.02 0.02 0.03
0.03 0.03 0.04 0.04 0.05 0.07 0.06 0.05 0.05 0.06 0.07 0.06 0.04 0.03 0.03 0.03 0.04 0.06 0.07 0.08 0.13 0.15 0.11 0.08 0.08 0.11 0.17 0.15 0.09 0.09 0.13 0.11 0.07 0.05 0.04 0.03 0.04 0.05 0.04 0.03 0.02 0.03 0.04
0.02 0.02 0.02 0.03 0.04 0.06 0.05 0.04 0.04 0.05 0.07 0.06 0.03 0.03 0.03 0.03 0.04 0.05 0.06 0.06 0.10 0.11 0.11 0.09 0.12 0.13 0.13 0.12 0.10 0.12 0.12 0.11 0.06 0.04 0.03 0.03 0.03 0.02 0.02 0.02 0.03 0.03 0.03
0.03 0.02 0.02 0.03 0.04 0.05 0.04 0.04 0.04 0.05 0.07 0.06 0.04 0.04 0.05 0.06 0.06 0.06 0.05 0.06 0.07 0.10 0.13 0.12 0.09 0.07 0.08 0.11 0.13 0.16 0.15 0.12 0.07 0.05 0.04 0.03 0.04 0.03 0.03 0.02 0.03 0.02 0.02
0.04 0.02 0.02 0.03 0.04 0.05 0.04 0.04 0.05 0.07 0.08 0.06 0.04 0.05 0.04 0.05 0.05 0.06 0.06 0.06 0.06 0.07 0.09 0.09 0.08 0.06 0.07 0.10 0.15 0.19 0.15 0.13 0.10 0.08 0.04 0.03 0.04 0.04 0.03 0.03 0.02 0.02 0.02
0.04 0.03 0.02 0.03 0.03 0.04 0.05 0.05 0.07 0.09 0.07 0.05 0.06 0.06 0.06 0.05 0.05 0.06 0.06 0.07 0.06 0.06 0.07 0.08 0.07 0.06 0.07 0.11 0.17 0.19 0.14 0.12 0.09 0.09 0.03 0.02 0.04 0.04 0.03 0.03 0.02 0.01 0.02
0.05 0.05 0.03 0.03 0.03 0.05 0.05 0.07 0.08 0.09 0.08 0.06 0.06 0.08 0.07 0.06 0.04 0.04 0.05 0.07 0.06 0.06 0.07 0.10 0.09 0.07 0.07 0.08 0.13 0.16 0.14 0.11 0.07 0.06 0.03 0.02 0.03 0.05 0.04 0.02 0.02 0.03 0.04
0.05 0.06 0.07 0.06 0.06 0.08 0.07 0.07 0.06 0.06 0.06 0.05 0.05 0.07 0.07 0.06 0.03 0.02 0.03 0.05 0.04 0.07 0.09 0.11 0.09 0.07 0.08 0.06 0.07 0.11 0.11 0.11 0.06 0.05 0.03 0.03 0.04 0.05 0.04 0.03 0.02 0.04 0.04
0.06 0.07 0.11 0.10 0.12 0.11 0.07 0.06 0.06 0.06 0.06 0.08 0.05 0.08 0.07 0.06 0.03 0.02 0.03 0.03 0.03 0.07 0.09 0.09 0.08 0.07 0.09 0.07 0.08 0.12 0.10 0.09 0.07 0.05 0.04 0.04 0.04 0.04 0.04 0.03 0.03 0.03 0.03
0.06 0.11 0.15 0.16 0.15 0.10 0.05 0.05 0.06 0.04 0.07 0.09 0.09 0.10 0.09 0.05 0.04 0.04 0.05 0.04 0.04 0.05 0.05 0.07 0.07 0.08 0.08 0.07 0.05 0.08 0.08 0.06 0.05 0.04 0.06 0.06 0.06 0.05 0.05 0.04 0.04 0.03 0.02
0.08 0.12 0.14 0.13 0.10 0.06 0.03 0.02 0.04 0.06 0.08 0.08 0.11 0.09 0.08 0.03 0.02 0.04 0.06 0.07 0.08 0.09 0.08 0.08 0.09 0.09 0.08 0.06 0.05 0.08 0.12 0.08 0.06 0.04 0.04 0.05 0.05 0.06 0.06 0.06 0.05 0.05 0.05
0.04 0.08 0.09 0.07 0.05 0.04 0.03 0.03 0.05 0.08 0.08 0.08 0.08 0.05 0.04 0.02 0.01 0.02 0.03 0.04 0.06 0.08 0.08 0.08 0.08 0.08 0.06 0.04 0.06 0.08 0.09 0.11 0.10 0.09 0.07 0.07 0.06 0.05 0.06 0.06 0.06 0.06 0.06
0.04 0.06 0.05 0.04 0.03 0.03 0.03 0.04 0.04 0.04 0.04 0.04 0.03 0.03 0.03 0.01 0.01 0.01 0.02 0.03 0.04 0.06 0.06 0.07 0.08 0.08 0.04 0.03 0.05 0.09 0.10 0.11 0.13 0.13 0.12 0.08 0.06 0.05 0.06 0.05 0.05 0.06 0.07
0.04 0.04 0.05 0.04 0.03 0.03 0.03 0.04 0.03 0.02 0.02 0.01 0.02 0.02 0.02 0.01 0.01 0.01 0.02 0.02 0.03 0.05 0.07 0.09 0.11 0.07 0.05 0.04 0.04 0.05 0.05 0.08 0.09 0.13 0.15 0.12 0.06 0.04 0.05 0.05 0.05 0.06 0.06
0.05 0.04 0.05 0.05 0.03 0.02 0.03 0.04 0.03 0.02 0.01 0.01 0.02 0.02 0.01 0.01 0.01 0.01 0.02 0.02 0.03 0.05 0.08 0.11 0.09 0.07 0.05 0.04 0.03 0.02 0.04 0.05 0.07 0.08 0.12 0.10 0.08 0.06 0.05 0.05 0.06 0.06 0.07
0.03 0.03 0.04 0.03 0.02 0.02 0.02 0.04 0.03 0.02 0.01 0.01 0.02 0.02 0.02 0.02 0.03 0.02 0.02 0.02 0.04 0.05 0.06 0.06 0.06 0.05 0.04 0.04 0.03 0.03 0.04 0.05 0.04 0.06 0.08 0.09 0.10 0.10 0.09 0.07 0.06 0.05 0.08
0.01 0.01 0.01 0.01 0.02 0.02 0.02 0.02 0.03 0.04 0.03 0.03 0.03 0.02 0.03 0.03 0.03 0.03 0.02 0.03 0.05 0.05 0.05 0.05 0.06 0.06 0.06 0.05 0.05 0.05 0.04 0.05 0.05 0.04 0.05 0.09 0.10 0.12 0.16 0.14 0.15 0.12 0.10
0.00 0.00 0.00 0.01 0.00 0.00 0.01 0.02 0.03 0.04 0.05 0.05 0.04 0.04 0.05 0.04 0.05 0.05 0.06 0.07 0.08 0.06 0.04 0.05 0.05 0.05 0.05 0.07 0.05 0.05 0.04 0.04 0.06 0.05 0.05 0.08 0.12 0.11 0.14 0.17 0.15 0.13 0.15
0.00 0.00 0.00 0.01 0.01 0.00 0.01 0.02 0.03 0.04 0.05 0.05 0.05 0.06 0.05 0.05 0.06 0.07 0.10 0.12 0.09 0.06 0.05 0.05 0.04 0.04 0.03 0.05 0.05 0.04 0.03 0.04 0.04 0.05 0.04 0.05 0.07 0.06 0.07 0.10 0.11 0.11 0.17
0.00 0.00 0.00 0.01 0.01 0.01 0.00 0.01 0.02 0.04 0.04 0.06 0.07 0.06 0.03 0.03 0.05 0.05 0.05 0.05 0.05 0.06 0.05 0.04 0.04 0.04 0.04 0.04 0.04 0.04 0.04 0.04 0.05 0.03 0.04 0.04 0.07 0.07 0.06 0.07 0.10 0.11 0.16
0.00 0.00 0.00 0.00 0.01 0.01 0.01 0.01 0.01 0.02 0.03 0.04 0.06 0.04 0.03 0.02 0.02 0.03 0.03 0.04 0.04 0.05 0.04 0.04 0.04 0.03 0.03 0.04 0.04 0.04 0.05 0.05 0.05 0.04 0.04 0.04 0.06 0.05 0.06 0.06 0.04 0.04 0.09
0.01 0.00 0.00 0.01 0.01 0.01 0.01 0.01 0.01 0.01 0.02 0.03 0.04 0.02 0.02 0.02 0.01 0.02 0.03 0.02 0.03 0.04 0.04 0.05 0.06 0.05 0.05 0.06 0.06 0.06 0.06 0.06 0.05 0.05 0.04 0.04 0.04 0.04 0.05 0.04 0.04 0.03 0.03
MSLP
1008.06 1007.74 1007.55 1007.54 1007.70 1008.01 1008.41 1008.85 1009.27 1009.67 1010.05 1010.43 1010.85 1011.32 1011.86 1012.44 1013.01 1013.53 1013.96 1014.27 1014.49 1014.62 1014.73 1014.84 1015.00 1015.20 1015.43 1015.67 1015.86 1015.99 1016.02 1015.98 1015.87 1015.75 1015.65 1015.60 1015.61 1015.68 1015.81 1015.97 1016.14 1016.31 1016.47
1008.11 1007.89 1007.78 1007.82 1007.99 1008.28 1008.63 1009.01 1009.40 1009.78 1010.18 1010.61 1011.11 1011.67 1012.27 1012.89 1013.47 1013.97 1014.36 1014.62 1014.78 1014.88 1014.96 1015.07 1015.23 1015.44 1015.68 1015.91 1016.10 1016.21 1016.24 1016.19 1016.10 1016.00 1015.92 1015.88 1015.91 1015.98 1016.10 1016.24 1016.39 1016.55 1016.72
1008.04 1007.96 1007.97 1008.09 1008.30 1008.59 1008.91 1009.25 1009.60 1009.96 1010.36 1010.83 1011.37 1011.99 1012.64 1013.28 1013.85 1014.33 1014.67 1014.88 1015.01 1015.08 1015.16 1015.28 1015.45 1015.67 1015.92 1016.15 1016.33 1016.44 1016.48 1016.45 1016.38 1016.31 1016.26 1016.25 1016.28 1016.35 1016.45 1016.57 1016.70 1016.85 1017.00
1007.80 1007.89 1008.06 1008.31 1008.62 1008.94 1009.26 1009.57 1009.88 1010.21 1010.60 1011.07 1011.63 1012.26 1012.93 1013.56 1014.13 1014.57 1014.88 1015.07 1015.18 1015.26 1015.35 1015.49 1015.69 1015.93 1016.18 1016.42 1016.60 1016.71 1016.75 1016.75 1016.72 1016.68 1016.67 1016.69 1016.73 1016.79 1016.87 1016.96 1017.06 1017.18 1017.33
1007.39 1007.69 1008.06 1008.48 1008.90 1009.30 1009.65 1009.95 1010.23 1010.53 1010.89 1011.33 1011.88 1012.50 1013.14 1013.76 1014.30 1014.72 1015.01 1015.20 1015.32 1015.43 1015.56 1015.74 1015.97 1016.24 1016.50 1016.73 1016.91 1017.02 1017.08 1017.09 1017.09 1017.10 1017.12 1017.16 1017.21 1017.27 1017.32 1017.38 1017.45 1017.54 1017.68
1006.86 1007.37 1007.95 1008.57 1009.14 1009.64 1010.05 1010.36 1010.62 1010.88 1011.20 1011.61 1012.12 1012.71 1013.32 1013.91 1014.42 1014.83 1015.12 1015.32 1015.48 1015.63 1015.81 1016.04 1016.31 1016.59 1016.86 1017.09 1017.25 1017.36 1017.41 1017.45 1017.48 1017.52 1017.57 1017.64 1017.70 1017.74 1017.77 1017.80 1017.83 1017.90 1018.02
1006.29 1006.99 1007.78 1008.59 1009.33 1009.94 1010.41 1010.75 1011.01 1011.25 1011.53 1011.91 1012.38 1012.93 1013.51 1014.07 1014.56 1014.95 1015.25 1015.48 1015.67 1015.87 1016.11 1016.38 1016.68 1016.98 1017.24 1017.45 1017.59 1017.68 1017.74 1017.78 1017.83 1017.90 1017.99 1018.08 1018.15 1018.18 1018.19 1018.19 1018.19 1018.24 1018.34
1005.79 1006.65 1007.61 1008.58 1009.45 1010.17 1010.71 1011.09 1011.36 1011.60 1011.87 1012.23 1012.68 1013.20 1013.75 1014.29 1014.76 1015.15 1015.45 1015.70 1015.93 1016.16 1016.43 1016.73 1017.05 1017.34 1017.59 1017.77 1017.89 1017.96 1018.00 1018.05 1018.12 1018.22 1018.34 1018.45 1018.53 1018.57 1018.56 1018.53 1018.51 1018.53 1018.61
1005.47 1006.43 1007.51 1008.59 1009.57 1010.37 1010.97 1011.38 1011.68 1011.94 1012.22 1012.58 1013.03 1013.55 1014.09 1014.61 1015.07 1015.45 1015.75 1016.00 1016.24 1016.49 1016.77 1017.07 1017.37 1017.65 1017.87 1018.02 1018.11 1018.16 1018.19 1018.24 1018.33 1018.45 1018.59 1018.73 1018.82 1018.87 1018.86 1018.82 1018.78 1018.78 1018.84
1005.44 1006.44 1007.57 1008.70 1009.72 1010.55 1011.18 1011.63 1011.96 1012.25 1012.56 1012.95 1013.43 1013.97 1014.52 1015.04 1015.49 1015.85 1016.13 1016.37 1016.58 1016.82 1017.07 1017.35 1017.63 1017.88 1018.06 1018.18 1018.24 1018.27 1018.30 1018.35 1018.45 1018.60 1018.76 1018.92 1019.04 1019.10 1019.11 1019.07 1019.02 1019.00 1019.04
1005.73 1006.71 1007.82 1008.93 1009.94 1010.76 1011.39 1011.85 1012.21 1012.53 1012.90 1013.34 1013.86 1014.43 1015.01 1015.53 1015.97 1016.31 1016.57 1016.76 1016.94 1017.12 1017.34 1017.57 1017.81 1018.01 1018.17 1018.26 1018.30 1018.32 1018.34 1018.40 1018.51 1018.67 1018.86 1019.05 1019.19 1019.28 1019.30 1019.27 1019.22 1019.20 1019.23
1006.35 1007.26 1008.30 1009.33 1010.26 1011.03 1011.63 1012.08 1012.45 1012.81 1013.22 1013.72 1014.29 1014.90 1015.50 1016.04 1016.47 1016.78 1017.00 1017.14 1017.26 1017.39 1017.55 1017.73 1017.91 1018.08 1018.21 1018.28 1018.31 1018.33 1018.35 1018.41 1018.53 1018.70 1018.90 1019.11 1019.28 1019.39 1019.44 1019.43 1019.40 1019.38 1019.40
1007.24 1008.05 1008.97 1009.89 1010.71 1011.38 1011.92 1012.33 1012.71 1013.09 1013.54 1014.08 1014.69 1015.34 1015.96 1016.49 1016.91 1017.20 1017.37 1017.47 1017.54 1017.61 1017.71 1017.84 1017.98 1018.12 1018.22 1018.29 1018.32 1018.33 1018.35 1018.41 1018.53 1018.69 1018.90 1019.11 1019.30 1019.44 1019.52 1019.54 1019.54 1019.54 1019.56
1008.32 1009.01 1009.79 1010.56 1011.25 1011.82 1012.27 1012.65 1013.00 1013.39 1013.85 1014.42 1015.05 1015.70 1016.32 1016.85 1017.25 1017.52 1017.66 1017.72 1017.75 1017.77 1017.83 1017.92 1018.04 1018.15 1018.25 1018.31 1018.34 1018.35 1018.37 1018.41 1018.51 1018.65 1018.84 1019.04 1019.24 1019.40 1019.52 1019.58 1019.62 1019.64 1019.67
1009.47 1010.05 1010.69 1011.31 1011.87 1012.33 1012.70 1013.02 1013.35 1013.72 1014.18 1014.73 1015.34 1015.98 1016.57 1017.08 1017.47 1017.72 1017.84 1017.89 1017.89 1017.90 1017.93 1018.01 1018.10 1018.21 1018.30 1018.36 1018.39 1018.39 1018.39 1018.41 1018.47 1018.57 1018.72 1018.90 1019.09 1019.26 1019.41 1019.52 1019.60 1019.66 1019.71
1010.62 1011.08 1011.58 1012.08 1012.52 1012.89 1013.20 1013.48 1013.77 1014.12 1014.54 1015.04 1015.60 1016.18 1016.73 1017.20 1017.55 1017.79 1017.92 1017.97 1017.99 1018.00 1018.04 1018.11 1018.20 1018.30 1018.39 1018.44 1018.46 1018.45 1018.42 1018.40 1018.41 1018.45 1018.55 1018.68 1018.85 1019.02 1019.18 1019.33 1019.45 1019.55 1019.64
1011.68 1012.04 1012.43 1012.82 1013.18 1013.49 1013.77 1014.01 1014.28 1014.58 1014.95 1015.37 1015.85 1016.34 1016.81 1017.22 1017.55 1017.78 1017.92 1018.01 1018.05 1018.09 1018.15 1018.23 1018.32 1018.42 1018.50 1018.55 1018.56 1018.52 1018.46 1018.39 1018.33 1018.31 1018.33 1018.41 1018.53 1018.67 1018.84 1019.01 1019.17 1019.31 1019.42
1012.63 1012.89 1013.20 1013.52 1013.82 1014.10 1014.36 1014.60 1014.85 1015.11 1015.41 1015.75 1016.11 1016.50 1016.87 1017.21 1017.50 1017.73 1017.90 1018.02 1018.11 1018.19 1018.28 1018.37 1018.47 1018.56 1018.64 1018.67 1018.66 1018.60 1018.51 1018.39 1018.28 1018.18 1018.12 1018.12 1018.17 1018.27 1018.42 1018.59 1018.77 1018.93 1019.07
1013.45 1013.64 1013.87 1014.13 1014.41 1014.69 1014.96 1015.21 1015.45 1015.69 1015.92 1016.16 1016.41 1016.67 1016.94 1017.21 1017.45 1017.68 1017.87 1018.04 1018.18 1018.31 1018.42 1018.53 1018.63 1018.71 1018.77 1018.80 1018.77 1018.70 1018.59 1018.44 1018.27 1018.10 1017.96 1017.87 1017.84 1017.88 1017.97 1018.11 1018.27 1018.44 1018.59
1014.17 1014.29 1014.45 1014.68 1014.94 1015.23 1015.53 1015.81 1016.06 1016.26 1016.44 1016.59 1016.73 1016.88 1017.05 1017.23 1017.44 1017.66 1017.88 1018.08 1018.27 1018.43 1018.57 1018.69 1018.78 1018.86 1018.91 1018.92 1018.90 1018.83 1018.71 1018.55 1018.34 1018.13 1017.91 1017.73 1017.60 1017.54 1017.55 1017.62 1017.74 1017.88 1018.02
1014.79 1014.84 1014.95 1015.13 1015.39 1015.69 1016.02 1016.33 1016.59 1016.80 1016.93 1017.01 1017.05 1017.10 1017.17 1017.29 1017.46 1017.67 1017.91 1018.14 1018.37 1018.56 1018.71 1018.83 1018.91 1018.97 1019.02 1019.04 1019.03 1018.98 1018.89 1018.73 1018.53 1018.27 1018.00 1017.73 1017.49 1017.32 1017.21 1017.18 1017.21 1017.30 1017.40
1015.31 1015.30 1015.35 1015.49 1015.73 1016.04 1016.39 1016.73 1017.01 1017.22 1017.33 1017.36 1017.33 1017.31 1017.31 1017.37 1017.50 1017.70 1017.95 1018.20 1018.44 1018.65 1018.80 1018.91 1018.99 1019.04 1019.08 1019.12 1019.15 1019.14 1019.10 1018.98 1018.80 1018.53 1018.22 1017.87 1017.53 1017.22 1016.98 1016.82 1016.74 1016.74 1016.78
1015.70 1015.65 1015.64 1015.73 1015.94 1016.24 1016.60 1016.96 1017.27 1017.48 1017.59 1017.59 1017.53 1017.45 1017.41 1017.43 1017.53 1017.72 1017.96 1018.22 1018.46 1018.67 1018.81 1018.91 1018.97 1019.02 1019.07 1019.14 1019.21 1019.27 1019.29 1019.24 1019.10 1018.86 1018.52 1018.11 1017.67 1017.24 1016.86 1016.56 1016.35 1016.23 1016.18
1015.95 1015.86 1015.80 1015.84 1016.00 1016.28 1016.63 1017.00 1017.33 1017.57 1017.68 1017.69 1017.61 1017.51 1017.44 1017.43 1017.51 1017.68 1017.90 1018.15 1018.39 1018.58 1018.71 1018.79 1018.84 1018.88 1018.95 1019.05 1019.17 1019.30 1019.41 1019.43 1019.36 1019.15 1018.81 1018.36 1017.85 1017.32 1016.81 1016.37 1016.03 1015.79 1015.65
1016.01 1015.90 1015.81 1015.80 1015.91 1016.16 1016.49 1016.87 1017.21 1017.47 1017.61 1017.64 1017.57 1017.47 1017.38 1017.35 1017.41 1017.55 1017.75 1017.98 1018.19 1018.36 1018.47 1018.53 1018.57 1018.61 1018.69 1018.81 1018.99 1019.19 1019.37 1019.47 1019.47 1019.31 1019.00 1018.55 1018.00 1017.40 1016.79 1016.24 1015.78 1015.43 1015.18
1015.87 1015.77 1015.66 1015.61 1015.68 1015.89 1016.21 1016.59 1016.95 1017.24 1017.41 1017.46 1017.42 1017.32 1017.23 1017.18 1017.21 1017.32 1017.49 1017.69 1017.87 1018.01 1018.09 1018.14 1018.16 1018.20 1018.28 1018.43 1018.64 1018.89 1019.13 1019.30 1019.37 1019.28 1019.01 1018.59 1018.04 1017.41 1016.75 1016.13 1015.58 1015.13 1014.80
Thickness
5787 5791 5792 5793 5793 5794 5794 5794 5794 5793 5793 5792 5791 5791 5790 5788 5787 5785 5784 5782 5781 5779 5777 5775 5774 5772 5771 5769 5767 5766 5764 5763 5762 5760 5759 5758 5757 5756 5754 5753 5751 5750 5749
5791 5792 5792 5792 5793 5793 5793 5793 5793 5793 5792 5791 5790 5789 5788 5787 5786 5784 5782 5781 5779 5778 5776 5775 5773 5771 5769 5768 5766 5765 5763 5762 5761 5759 5758 5757 5756 5755 5753 5752 5751 5749 5748
5792 5792 5792 5792 5792 5792 5792 5792 5792 5792 5791 5790 5790 5788 5787 5786 5784 5783 5781 5780 5778 5777 5775 5773 5772 5770 5768 5767 5766 5764 5762 5761 5759 5758 5757 5756 5754 5753 5753 5751 5749 5748 5747
5793 5792 5792 5792 5791 5792 5791 5791 5792 5791 5790 5789 5788 5787 5786 5785 5784 5782 5780 5779 5777 5776 5774 5772 5771 5769 5768 5766 5764 5763 5761 5759 5758 5757 5755 5754 5753 5752 5751 5750 5748 5747 5746
5793 5792 5792 5791 5791 5791 5791 5791 5791 5790 5790 5789 5788 5786 5785 5784 5783 5781 5780 5778 5777 5775 5773 5772 5770 5769 5767 5765 5763 5762 5760 5758 5757 5756 5754 5753 5752 5751 5750 5749 5747 5746 5745
5792 5792 5791 5791 5791 5790 5790 5790 5790 5790 5789 5788 5787 5786 5785 5784 5782 5780 5779 5778 5776 5774 5773 5772 5770 5768 5767 5764 5762 5761 5760 5758 5756 5755 5754 5752 5751 5750 5749 5748 5746 5745 5744
5792 5792 5791 5791 5790 5790 5790 5790 5790 5790 5789 5788 5787 5786 5784 5783 5781 5780 5778 5777 5776 5774 5773 5771 5770 5768 5766 5764 5762 5761 5759 5758 5756 5755 5754 5752 5751 5750 5749 5747 5746 5744 5743
5793 5792 5791 5791 5790 5790 5790 5790 5790 5789 5789 5788 5787 5785 5784 5783 5781 5779 5778 5776 5775 5774 5772 5770 5769 5768 5766 5764 5762 5760 5758 5757 5755 5754 5753 5752 5751 5750 5749 5747 5746 5744 5743
5794 5792 5791 5790 5790 5790 5790 5790 5789 5789 5788 5787 5787 5785 5784 5783 5781 5779 5778 5776 5775 5773 5772 5771 5769 5768 5766 5764 5762 5760 5758 5757 5755 5753 5752 5751 5750 5749 5748 5747 5745 5744 5742
5793 5792 5791 5790 5790 5790 5790 5790 5789 5788 5788 5787 5786 5785 5783 5782 5781 5779 5778 5776 5775 5773 5772 5771 5769 5768 5766 5764 5762 5760 5758 5757 5756 5754 5752 5751 5750 5749 5748 5746 5745 5743 5742
5792 5792 5791 5790 5790 5790 5790 5790 5789 5788 5787 5786 5785 5784 5782 5781 5780 5778 5777 5776 5775 5773 5772 5771 5769 5768 5766 5764 5762 5760 5758 5757 5756 5754 5753 5752 5750 5749 5748 5747 5745 5744 5742
5790 5791 5792 5791 5790 5790 5790 5789 5788 5788 5786 5785 5784 5782 5781 5780 5779 5778 5777 5776 5775 5773 5772 5770 5769 5768 5766 5764 5762 5760 5759 5757 5756 5755 5753 5752 5751 5750 5748 5747 5745 5744 5742
5792 5792 5792 5792 5792 5791 5790 5789 5788 5787 5786 5785 5784 5782 5781 5779 5778 5777 5777 5776 5774 5773 5771 5770 5769 5767 5766 5764 5763 5761 5760 5758 5757 5755 5754 5753 5752 5750 5748 5746 5745 5744 5742
5794 5794 5794 5793 5792 5792 5791 5790 5788 5787 5785 5785 5784 5783 5781 5779 5778 5777 5776 5775 5774 5773 5771 5770 5768 5767 5766 5764 5763 5762 5761 5759 5757 5756 5754 5753 5752 5750 5748 5746 5745 5743 5742
5795 5795 5795 5794 5793 5792 5791 5790 5789 5787 5786 5786 5784 5783 5782 5780 5778 5777 5776 5775 5774 5773 5771 5769 5768 5767 5766 5765 5764 5763 5761 5760 5758 5756 5754 5753 5751 5750 5748 5746 5745 5744 5742
5796 5796 5796 5795 5795 5793 5792 5791 5789 5788 5787 5786 5784 5784 5782 5781 5780 5778 5776 5775 5774 5773 5771 5770 5769 5767 5766 5765 5764 5763 5762 5760 5758 5756 5754 5752 5751 5750 5748 5747 5745 5744 5742
5798 5798 5797 5797 5796 5794 5793 5792 5791 5789 5788 5786 5785 5785 5783 5782 5781 5779 5777 5776 5775 5773 5772 5770 5768 5767 5765 5764 5763 5763 5762 5761 5759 5757 5755 5753 5751 5750 5749 5747 5746 5744 5742
5801 5799 5799 5799 5796 5795 5793 5792 5791 5790 5789 5787 5786 5785 5784 5783 5782 5780 5778 5776 5776 5773 5771 5769 5767 5765 5764 5763 5762 5761 5761 5760 5759 5757 5755 5754 5752 5751 5749 5747 5746 5744 5742
5802 5800 5798 5798 5796 5795 5794 5793 5792 5791 5789 5788 5786 5785 5784 5783 5782 5780 5779 5777 5775 5773 5771 5770 5767 5764 5762 5761 5761 5761 5760 5759 5758 5757 5755 5754 5752 5751 5748 5747 5745 5744 5742
5803 5801 5799 5798 5797 5796 5794 5792 5791 5790 5789 5788 5787 5786 5785 5783 5782 5780 5778 5776 5774 5772 5770 5768 5766 5764 5763 5761 5760 5759 5759 5759 5758 5757 5755 5754 5752 5750 5748 5746 5745 5743 5742
5803 5800 5799 5797 5796 5795 5792 5789 5787 5786 5787 5787 5787 5786 5785 5783 5782 5780 5778 5775 5773 5771 5769 5768 5766 5763 5761 5760 5756 5753 5755 5758 5757 5756 5755 5754 5752 5750 5748 5746 5745 5743 5742
5803 5801 5799 5797 5796 5795 5793 5792 5790 5788 5787 5787 5786 5785 5784 5783 5782 5780 5777 5774 5772 5770 5768 5767 5765 5761 5760 5759 5753 5748 5744 5747 5751 5755 5754 5752 5751 5750 5748 5747 5745 5743 5741
5805 5803 5802 5799 5797 5796 5795 5793 5790 5788 5786 5784 5783 5783 5783 5783 5782 5780 5778 5775 5772 5770 5767 5766 5765 5761 5757 5757 5756 5749 5741 5737 5742 5748 5751 5751 5750 5748 5747 5745 5744 5742 5741
5808 5806 5803 5801 5798 5797 5795 5791 5787 5783 5779 5780 5781 5781 5782 5782 5780 5779 5777 5775 5772 5770 5768 5766 5765 5762 5758 5754 5754 5754 5750 5746 5739 5737 5744 5747 5747 5746 5745 5744 5743 5741 5740
5811 5807 5805 5801 5799 5797 5794 5791 5787 5784 5782 5782 5781 5779 5779 5779 5779 5778 5776 5774 5772 5770 5768 5766 5764 5762 5759 5755 5752 5751 5749 5746 5743 5736 5733 5738 5741 5743 5743 5742 5741 5740 5739
5812 5809 5805 5801 5798 5797 5794 5791 5788 5784 5782 5780 5779 5777 5777 5777 5777 5776 5775 5773 5771 5768 5766 5765 5763 5761 5759 5756 5753 5751 5747 5743 5739 5736 5732 5731 5732 5737 5740 5740 5739 5738 5737